Regional Weather Roundup
Issued by NWS

Home | Current Version | Previous Version | Graphics & Text | Print | Product List | Glossary On
Versions: 1 2 3 4 5 6 7 8 9 10 11 12 13 14 15 16 17 18 19 20 21 22 23 24 25 26 27 28 29 30 31 32 33 34 35 36 37 38 39 40 41 42 43 44 45 46 47 48 49 50
178
ASUS44 KJAN 200210
RWRMS

MISSISSIPPI HOURLY WEATHER ROUNDUP
NATIONAL WEATHER SERVICE JACKSON MS
800 PM CST FRI DEC 19 2014

NOTE: "FAIR: INDICATES FEW OR NO CLOUDS BELOW 12,000 FEET WITH NO
SIGNIFICANT WEATHER AND/OR OBSTRUCTIONS TO VISIBILITY.

MSZ001>002-007>008-010>013-018>021-025>028-034>036-200300-
NORTHWEST MISSISSIPPI

CITY           SKY/WX    TMP DP  RH WIND       PRES   REMARKS
CLARKSDALE     CLOUDY    45  39  81 N3        30.23S
CLEVELAND      CLOUDY    44  41  89 NE7       30.21F
GREENWOOD      CLOUDY    44  44 100 NE9       30.21S
GREENVILLE     CLOUDY    45  41  86 NE9       30.21R
GRENADA        CLOUDY    43  39  87 CALM      30.21F
OLIVE BRANCH   CLOUDY    39  37  93 NE6       30.23R WCI  35
OXFORD         CLOUDY    39  36  87 NE8       30.24R WCI  34
TUNICA         CLOUDY    43  37  81 NE3       30.24S
$$

MSZ003>006-009-014>017-022>024-029>033-037>039-200300-
NORTHEAST MISSISSIPPI

CITY           SKY/WX    TMP DP  RH WIND       PRES   REMARKS
COLUMBUS AFB   LGT RAIN  43  40  89 NE5       30.19S
CORINTH        CLOUDY    41  34  75 CALM      30.22S
GOLDN TRIANGLE CLOUDY    43  39  87 E5        30.18S
STARKVILLE     LGT RAIN  43  41  93 E3        30.18S
TUPELO         CLOUDY    41  37  86 N9        30.23R
$$

MSZ040-058-200300-
CENTRAL MISSISSIPPI

CITY           SKY/WX    TMP DP  RH WIND       PRES   REMARKS
JACKSON INTL   MOCLDY    45  43  93 E7        30.13F
JACKSON HAWKNS MOCLDY    45  43  93 E6        30.14S
MERIDIAN KEY   LGT RAIN  44  42  93 NE7       30.17F
MERIDIAN NAS   RAIN      44  41  89 NE6       30.18F FOG
RAYMOND        FAIR      45  41  87 N5        30.15R
VICKSBURG      CLOUDY    47  44  90 N12       30.18R
$$

MSZ059>079-200300-
SOUTH MISSISSIPPI

CITY           SKY/WX    TMP DP  RH WIND       PRES   REMARKS
HATTIESBURG    HVY RAIN  47  45  93 NE8       30.15S FOG
MCCOMB         LGT RAIN  46  44  93 NE5       30.11S
NATCHEZ        CLOUDY    46  43  87 N7        30.13R
PINE BELT      CLOUDY    45  43  93 NE8       30.15S
$$

MSZ080>082-200300-
COASTAL MISSISSIPPI

CITY           SKY/WX    TMP DP  RH WIND       PRES   REMARKS
BILOXI         LGT RAIN  48  48 100 NE13      30.10F
PASCAGOULA     LGT RAIN  48  47  96 NE9       30.11S
GULFPORT       LGT RAIN  48  46  93 NE10      30.09S FOG
$$



USA.gov is the U.S. government's official web portal to all federal, state and local government web resources and services.